Time,TemperatureF,DewpointF,PressureIn,WindDirection,WindDirectionDegrees,WindSpeedMPH,WindSpeedGustMPH,Humidity,HourlyPrecipIn,Conditions,Clouds,dailyrainin,SoftwareType,DateUTC
2013-07-07 01:32:00,70.0,68.0,30.01,SSW,212,2.0,7.0,92,0.00,,,0.00,,2013-07-07 05:32:00,
2013-07-07 01:41:00,70.0,68.0,30.01,SSW,212,2.0,7.0,92,0.00,,,0.00,,2013-07-07 05:41:00,
2013-07-07 01:51:00,70.0,68.0,30.01,SSW,212,2.0,7.0,92,0.00,,,0.00,,2013-07-07 05:51:00,
2013-07-07 02:01:00,70.0,68.0,30.01,SSW,212,2.0,7.0,92,0.00,,,0.00,,2013-07-07 06:01:00,
2013-07-07 02:11:00,70.0,67.0,30.01,West,277,1.0,5.0,91,0.00,,,0.00,,2013-07-07 06:11:00,
2013-07-07 02:21:00,70.0,67.0,30.01,West,277,1.0,5.0,91,0.00,,,0.00,,2013-07-07 06:21:00,
2013-07-07 02:32:00,69.0,66.0,30.01,SW,217,1.0,4.0,89,0.00,,,0.00,,2013-07-07 06:32:00,
2013-07-07 02:43:00,69.0,66.0,30.01,SW,217,1.0,4.0,89,0.00,,,0.00,,2013-07-07 06:43:00,
2013-07-07 02:52:00,69.0,66.0,30.01,WSW,244,1.0,6.0,90,0.00,,,0.00,,2013-07-07 06:52:00,
2013-07-07 03:02:00,69.0,66.0,30.00,WSW,246,0.0,6.0,90,0.00,,,0.00,,2013-07-07 07:02:00,
2013-07-07 03:11:00,69.0,66.0,30.00,WSW,246,0.0,6.0,90,0.00,,,0.00,,2013-07-07 07:11:00,
2013-07-07 03:22:00,69.0,66.0,30.00,SW,217,0.0,5.0,91,0.00,,,0.00,,2013-07-07 07:22:00,
2013-07-07 03:33:00,68.0,66.0,30.00,WSW,252,1.0,4.0,92,0.00,,,0.00,,2013-07-07 07:33:00,
2013-07-07 03:44:00,68.0,66.0,30.00,WSW,252,1.0,4.0,92,0.00,,,0.00,,2013-07-07 07:44:00,
2013-07-07 03:53:00,68.0,66.0,29.99,WSW,253,1.0,4.0,93,0.00,,,0.00,,2013-07-07 07:53:00,
2013-07-07 04:02:00,68.0,66.0,29.99,SW,220,1.0,4.0,93,0.00,,,0.00,,2013-07-07 08:02:00,
2013-07-07 04:12:00,68.0,66.0,29.99,SW,220,1.0,4.0,93,0.00,,,0.00,,2013-07-07 08:12:00,
2013-07-07 04:22:00,68.0,66.0,29.99,West,273,0.0,3.0,94,0.00,,,0.00,,2013-07-07 08:22:00,
2013-07-07 04:34:00,67.0,65.0,29.99,West,273,0.0,1.0,94,0.00,,,0.00,,2013-07-07 08:34:00,
2013-07-07 04:44:00,67.0,65.0,29.99,West,273,0.0,1.0,94,0.00,,,0.00,,2013-07-07 08:44:00,
2013-07-07 04:53:00,67.0,66.0,29.98,West,273,0.0,1.0,95,0.00,,,0.00,,2013-07-07 08:53:00,
2013-07-07 05:02:00,67.0,66.0,29.98,West,273,0.0,1.0,95,0.00,,,0.00,,2013-07-07 09:02:00,
2013-07-07 05:12:00,67.0,66.0,29.98,West,273,0.0,1.0,95,0.00,,,0.00,,2013-07-07 09:12:00,
2013-07-07 05:22:00,67.0,66.0,29.98,West,273,0.0,1.0,95,0.00,,,0.00,,2013-07-07 09:22:00,
2013-07-07 05:34:00,67.0,66.0,29.98,West,273,0.0,1.0,95,0.00,,,0.00,,2013-07-07 09:34:00,
2013-07-07 05:43:00,67.0,66.0,29.98,West,273,0.0,1.0,95,0.00,,,0.00,,2013-07-07 09:43:00,
2013-07-07 05:53:00,67.0,66.0,29.99,West,273,0.0,3.0,95,0.00,,,0.00,,2013-07-07 09:53:00,
2013-07-07 06:03:00,67.0,66.0,29.99,SSW,205,0.0,3.0,95,0.00,,,0.00,,2013-07-07 10:03:00,
2013-07-07 06:12:00,67.0,66.0,29.99,SSW,205,0.0,3.0,95,0.00,,,0.00,,2013-07-07 10:12:00,
2013-07-07 06:22:00,67.0,66.0,29.99,WSW,250,0.0,5.0,96,0.00,,,0.00,,2013-07-07 10:22:00,
2013-07-07 06:32:00,67.0,66.0,29.99,SW,227,0.0,4.0,96,0.00,,,0.00,,2013-07-07 10:32:00,
2013-07-07 06:43:00,67.0,66.0,29.99,SW,227,0.0,4.0,96,0.00,,,0.00,,2013-07-07 10:43:00,
2013-07-07 06:52:00,67.0,66.0,30.00,NW,309,0.0,3.0,96,0.00,,,0.00,,2013-07-07 10:52:00,
2013-07-07 07:02:00,67.0,66.0,30.00,SSW,200,0.0,4.0,95,0.00,,,0.00,,2013-07-07 11:02:00,
2013-07-07 07:11:00,67.0,66.0,30.00,SSW,200,0.0,4.0,95,0.00,,,0.00,,2013-07-07 11:11:00,
2013-07-07 07:23:00,67.0,66.0,30.01,SSW,200,1.0,3.0,95,0.00,,,0.00,,2013-07-07 11:23:00,
2013-07-07 07:34:00,67.0,66.0,30.01,WSW,250,0.0,3.0,95,0.00,,,0.00,,2013-07-07 11:34:00,
2013-07-07 07:43:00,67.0,66.0,30.01,WSW,250,0.0,3.0,95,0.00,,,0.00,,2013-07-07 11:43:00,
2013-07-07 07:53:00,67.0,66.0,30.01,WSW,237,1.0,5.0,95,0.00,,,0.00,,2013-07-07 11:53:00,
2013-07-07 08:02:00,67.0,66.0,30.01,West,265,0.0,2.0,95,0.00,,,0.00,,2013-07-07 12:02:00,
2013-07-07 08:12:00,67.0,66.0,30.01,West,265,0.0,2.0,95,0.00,,,0.00,,2013-07-07 12:12:00,
2013-07-07 08:22:00,68.0,67.0,30.01,SW,235,1.0,5.0,95,0.00,,,0.00,,2013-07-07 12:22:00,
2013-07-07 08:34:00,68.0,66.0,30.01,WNW,294,2.0,5.0,94,0.00,,,0.00,,2013-07-07 12:34:00,
2013-07-07 08:43:00,68.0,66.0,30.01,WNW,294,2.0,5.0,94,0.00,,,0.00,,2013-07-07 12:43:00,
2013-07-07 08:52:00,68.0,66.0,30.02,SW,234,1.0,6.0,94,0.00,,,0.00,,2013-07-07 12:52:00,
2013-07-07 09:02:00,69.0,67.0,30.02,WNW,287,2.0,5.0,93,0.00,,,0.00,,2013-07-07 13:02:00,
2013-07-07 09:12:00,69.0,67.0,30.02,WNW,287,2.0,5.0,93,0.00,,,0.00,,2013-07-07 13:12:00,
2013-07-07 09:22:00,69.0,67.0,30.03,SW,231,2.0,6.0,93,0.00,,,0.00,,2013-07-07 13:22:00,
2013-07-07 09:34:00,69.0,67.0,30.03,WNW,291,0.0,4.0,92,0.00,,,0.00,,2013-07-07 13:34:00,
2013-07-07 09:43:00,69.0,67.0,30.03,WNW,291,0.0,4.0,92,0.00,,,0.00,,2013-07-07 13:43:00,
2013-07-07 09:52:00,70.0,68.0,30.03,WSW,240,2.0,6.0,92,0.00,,,0.00,,2013-07-07 13:52:00,
2013-07-07 10:02:00,70.0,68.0,30.03,SW,235,1.0,4.0,92,0.00,,,0.00,,2013-07-07 14:02:00,
2013-07-07 10:12:00,70.0,68.0,30.03,SW,235,1.0,4.0,92,0.00,,,0.00,,2013-07-07 14:12:00,
2013-07-07 10:22:00,70.0,67.0,30.03,WNW,298,3.0,6.0,91,0.00,,,0.00,,2013-07-07 14:22:00,
2013-07-07 10:34:00,71.0,68.0,30.02,WNW,297,1.0,6.0,90,0.00,,,0.00,,2013-07-07 14:34:00,
2013-07-07 10:43:00,71.0,68.0,30.02,WNW,297,1.0,6.0,90,0.00,,,0.00,,2013-07-07 14:43:00,
2013-07-07 10:53:00,71.0,68.0,30.02,WSW,244,1.0,4.0,90,0.00,,,0.00,,2013-07-07 14:53:00,
2013-07-07 11:02:00,71.0,68.0,30.03,SSW,193,1.0,5.0,89,0.00,,,0.00,,2013-07-07 15:02:00,
2013-07-07 11:11:00,71.0,68.0,30.03,SSW,193,1.0,5.0,89,0.00,,,0.00,,2013-07-07 15:11:00,
2013-07-07 11:22:00,71.0,68.0,30.02,SSW,195,1.0,5.0,90,0.00,,,0.00,,2013-07-07 15:22:00,
2013-07-07 11:34:00,71.0,68.0,30.03,WSW,242,1.0,7.0,90,0.00,,,0.00,,2013-07-07 15:34:00,
2013-07-07 11:43:00,71.0,68.0,30.03,WSW,242,1.0,7.0,90,0.00,,,0.00,,2013-07-07 15:43:00,
2013-07-07 11:52:00,71.0,68.0,30.03,WSW,248,1.0,4.0,90,0.00,,,0.00,,2013-07-07 15:52:00,
2013-07-07 12:01:00,71.0,68.0,30.03,WSW,248,1.0,4.0,90,0.00,,,0.00,,2013-07-07 16:01:00,
2013-07-07 12:11:00,72.0,68.0,30.03,South,185,1.0,5.0,88,0.00,,,0.00,,2013-07-07 16:11:00,
2013-07-07 12:23:00,73.0,69.0,30.02,SSE,153,2.0,6.0,87,0.00,,,0.00,,2013-07-07 16:23:00,
2013-07-07 12:43:00,74.0,70.0,30.02,South,186,1.0,7.0,86,0.00,,,0.00,,2013-07-07 16:43:00,
2013-07-07 12:53:00,76.0,70.0,30.02,SW,225,2.0,6.0,83,0.00,,,0.00,,2013-07-07 16:53:00,
2013-07-07 13:02:00,76.0,70.0,30.02,SW,225,2.0,6.0,83,0.00,,,0.00,,2013-07-07 17:02:00,
2013-07-07 13:12:00,76.0,70.0,30.02,SSW,194,2.0,7.0,82,0.00,,,0.00,,2013-07-07 17:12:00,
2013-07-07 13:22:00,77.0,70.0,30.01,SW,217,2.0,8.0,79,0.00,,,0.00,,2013-07-07 17:22:00,
2013-07-07 13:34:00,77.0,70.0,30.01,SW,217,2.0,8.0,79,0.00,,,0.00,,2013-07-07 17:34:00,
2013-07-07 13:43:00,78.0,70.0,30.01,South,190,2.0,9.0,77,0.00,,,0.00,,2013-07-07 17:43:00,
2013-07-07 13:53:00,78.0,69.0,30.01,SSW,196,4.0,8.0,75,0.00,,,0.00,,2013-07-07 17:53:00,
2013-07-07 14:02:00,78.0,69.0,30.01,SSW,196,4.0,8.0,75,0.00,,,0.00,,2013-07-07 18:02:00,
2013-07-07 14:12:00,78.0,69.0,30.00,SSW,196,3.0,7.0,74,0.00,,,0.00,,2013-07-07 18:12:00,
2013-07-07 14:22:00,79.0,69.0,29.99,SSW,198,4.0,8.0,71,0.00,,,0.00,,2013-07-07 18:22:00,
2013-07-07 14:33:00,79.0,69.0,29.99,SSW,198,4.0,8.0,71,0.00,,,0.00,,2013-07-07 18:33:00,
2013-07-07 14:43:00,80.0,69.0,29.99,South,190,2.0,7.0,70,0.00,,,0.00,,2013-07-07 18:43:00,
2013-07-07 14:53:00,81.0,69.0,29.99,South,187,2.0,8.0,68,0.00,,,0.00,,2013-07-07 18:53:00,
2013-07-07 15:01:00,81.0,69.0,29.99,South,187,2.0,8.0,68,0.00,,,0.00,,2013-07-07 19:01:00,
2013-07-07 15:11:00,81.0,69.0,29.98,SSW,202,4.0,9.0,66,0.00,,,0.00,,2013-07-07 19:11:00,
2013-07-07 15:22:00,81.0,70.0,29.98,SW,236,4.0,9.0,69,0.00,,,0.00,,2013-07-07 19:22:00,
2013-07-07 15:34:00,81.0,70.0,29.98,SW,236,4.0,9.0,69,0.00,,,0.00,,2013-07-07 19:34:00,
2013-07-07 15:43:00,81.0,70.0,29.98,WSW,244,5.0,10.0,70,0.00,,,0.00,,2013-07-07 19:43:00,
2013-07-07 15:54:00,80.0,70.0,29.98,SW,219,5.0,8.0,71,0.00,,,0.00,,2013-07-07 19:54:00,
2013-07-07 16:02:00,80.0,70.0,29.98,SW,219,5.0,8.0,71,0.00,,,0.00,,2013-07-07 20:02:00,
2013-07-07 16:11:00,79.0,69.0,29.98,SSW,209,2.0,9.0,72,0.00,,,0.00,,2013-07-07 20:11:00,
2013-07-07 16:22:00,78.0,69.0,29.98,SSW,208,2.0,9.0,74,0.00,,,0.00,,2013-07-07 20:22:00,
2013-07-07 16:34:00,78.0,69.0,29.98,SSW,208,2.0,9.0,74,0.00,,,0.00,,2013-07-07 20:34:00,
2013-07-07 16:42:00,77.0,69.0,29.98,West,261,1.0,7.0,76,0.00,,,0.00,,2013-07-07 20:42:00,
2013-07-07 16:53:00,77.0,69.0,29.97,SSW,203,0.0,3.0,76,0.00,,,0.00,,2013-07-07 20:53:00,
2013-07-07 17:02:00,77.0,69.0,29.97,SSW,203,0.0,3.0,76,0.00,,,0.00,,2013-07-07 21:02:00,
2013-07-07 17:11:00,77.0,70.0,29.97,WSW,239,0.0,4.0,78,0.00,,,0.00,,2013-07-07 21:11:00,
2013-07-07 17:22:00,77.0,70.0,29.97,South,185,0.0,3.0,78,0.00,,,0.00,,2013-07-07 21:22:00,
2013-07-07 17:33:00,77.0,70.0,29.97,South,185,0.0,3.0,78,0.00,,,0.00,,2013-07-07 21:33:00,
2013-07-07 17:43:00,77.0,70.0,29.96,West,263,0.0,5.0,78,0.00,,,0.00,,2013-07-07 21:43:00,
2013-07-07 17:53:00,77.0,70.0,29.96,SSW,195,0.0,3.0,79,0.00,,,0.00,,2013-07-07 21:53:00,
2013-07-07 18:01:00,77.0,70.0,29.96,SSW,195,0.0,3.0,79,0.00,,,0.00,,2013-07-07 22:01:00,
2013-07-07 18:11:00,77.0,70.0,29.96,South,190,0.0,4.0,80,0.00,,,0.00,,2013-07-07 22:11:00,
2013-07-07 18:22:00,77.0,71.0,29.96,SSW,196,0.0,4.0,82,0.00,,,0.00,,2013-07-07 22:22:00,
2013-07-07 18:34:00,77.0,71.0,29.96,SSW,196,0.0,4.0,82,0.00,,,0.00,,2013-07-07 22:34:00,
2013-07-07 18:44:00,76.0,71.0,29.96,SW,218,0.0,3.0,84,0.00,,,0.00,,2013-07-07 22:44:00,
2013-07-07 18:53:00,75.0,71.0,29.96,WSW,237,0.0,2.0,86,0.01,,,0.01,,2013-07-07 22:53:00,
2013-07-07 19:02:00,75.0,71.0,29.96,WSW,237,0.0,2.0,86,0.01,,,0.01,,2013-07-07 23:02:00,
2013-07-07 19:12:00,75.0,71.0,29.96,WSW,237,0.0,1.0,88,0.02,,,0.02,,2013-07-07 23:12:00,
2013-07-07 19:22:00,74.0,71.0,29.97,WSW,238,0.0,2.0,89,0.02,,,0.02,,2013-07-07 23:22:00,
2013-07-07 19:33:00,74.0,71.0,29.97,WSW,238,0.0,2.0,89,0.02,,,0.02,,2013-07-07 23:33:00,
2013-07-07 19:43:00,74.0,71.0,29.97,NE,49,0.0,1.0,90,0.04,,,0.04,,2013-07-07 23:43:00,
2013-07-07 19:53:00,73.0,70.0,29.97,NE,49,0.0,1.0,91,0.03,,,0.04,,2013-07-07 23:53:00,
2013-07-07 20:02:00,73.0,70.0,29.97,NE,49,0.0,1.0,91,0.03,,,0.04,,2013-07-08 00:02:00,
2013-07-07 20:12:00,73.0,71.0,29.97,NE,49,0.0,0.0,92,0.03,,,0.05,,2013-07-08 00:12:00,
2013-07-07 20:22:00,73.0,71.0,29.97,NE,49,0.0,1.0,93,0.03,,,0.05,,2013-07-08 00:22:00,
2013-07-07 20:33:00,73.0,71.0,29.97,NE,49,0.0,1.0,93,0.03,,,0.05,,2013-07-08 00:33:00,
2013-07-07 20:43:00,73.0,71.0,29.98,WNW,300,0.0,3.0,93,0.01,,,0.05,,2013-07-08 00:43:00,
2013-07-07 20:53:00,72.0,69.0,29.97,WSW,244,0.0,5.0,90,0.01,,,0.05,,2013-07-08 00:53:00,
2013-07-07 21:01:00,72.0,69.0,29.97,WSW,244,0.0,5.0,90,0.01,,,0.05,,2013-07-08 01:01:00,
2013-07-07 21:11:00,72.0,70.0,29.98,WSW,238,0.0,2.0,92,0.00,,,0.05,,2013-07-08 01:11:00,
2013-07-07 21:22:00,72.0,70.0,29.98,SW,236,0.0,4.0,92,0.00,,,0.05,,2013-07-08 01:22:00,
2013-07-07 21:32:00,72.0,70.0,29.98,SW,236,0.0,4.0,92,0.00,,,0.05,,2013-07-08 01:32:00,
2013-07-07 21:43:00,72.0,69.0,29.98,SW,236,0.0,1.0,89,0.00,,,0.05,,2013-07-08 01:43:00,
2013-07-07 21:52:00,72.0,69.0,29.98,SW,236,0.0,1.0,90,0.00,,,0.05,,2013-07-08 01:52:00,
2013-07-07 22:02:00,72.0,69.0,29.98,SW,236,0.0,1.0,90,0.00,,,0.05,,2013-07-08 02:02:00,
2013-07-07 22:11:00,72.0,69.0,29.98,SW,236,0.0,1.0,91,0.00,,,0.05,,2013-07-08 02:11:00,
2013-07-07 22:22:00,72.0,70.0,29.99,SW,236,0.0,1.0,92,0.00,,,0.05,,2013-07-08 02:22:00,
2013-07-07 22:33:00,72.0,70.0,29.99,SW,236,0.0,1.0,92,0.00,,,0.05,,2013-07-08 02:33:00,
2013-07-07 22:42:00,72.0,70.0,29.99,SW,236,0.0,1.0,93,0.00,,,0.05,,2013-07-08 02:42:00,
2013-07-07 22:52:00,72.0,70.0,29.99,SW,236,0.0,1.0,93,0.00,,,0.05,,2013-07-08 02:52:00,
2013-07-07 23:02:00,72.0,70.0,29.99,SW,236,0.0,1.0,93,0.00,,,0.05,,2013-07-08 03:02:00,
2013-07-07 23:12:00,72.0,70.0,29.99,SSW,207,0.0,1.0,92,0.00,,,0.05,,2013-07-08 03:12:00,
2013-07-07 23:23:00,72.0,70.0,29.99,SSW,207,0.0,1.0,92,0.00,,,0.05,,2013-07-08 03:23:00,
2013-07-07 23:34:00,72.0,70.0,29.99,West,278,0.0,2.0,92,0.00,,,0.05,,2013-07-08 03:34:00,
2013-07-07 23:42:00,72.0,69.0,29.99,SSW,204,0.0,3.0,91,0.00,,,0.05,,2013-07-08 03:42:00,
2013-07-07 23:52:00,73.0,70.0,30.00,SSW,207,0.0,3.0,91,0.00,,,0.05,,2013-07-08 03:52:00,